Home > Weather > Coburg > Past weeks

Flag for Germany Weather for the Past 2 Weeks in Coburg, Bavaria, Germany

Now
46 °F

Partly sunny.


Feels Like: 40 °F
Forecast: 37 / 56 °F
Wind: 16 mph from Northwest

Location: Hof Airport

Current Time: May 3, 2016 at 6:31:47 PM

Latest Report: May 3, 2016 at 5:50 PM


Visibility: N/A

Pressure: 30.07 "Hg

Humidity: 76%

Dew Point: 39 °F

Location of CoburgLocation

Historic Weather in Coburg — Graph

°F

Coburg Temperature Yesterday

Maximum temperature yesterday: 59 °F (at 3:20 PM)
Minimum temperature yesterday: 41 °F (at 6:50 AM)
Average temperature yesterday: 54 °F

High & Low Weather Summary for the Past Weeks

 TemperatureHumidityPressure
High63 °F (Apr 30, 2:50 PM)93% (Apr 23, 4:50 PM)30.39 "Hg (Apr 23, 4:50 PM)
Low30 °F (Apr 25, 6:50 AM)20% (Apr 21, 2:20 PM)29.45 "Hg (Apr 26, 6:20 AM)
Average45 °F61%29.99 "Hg
* Reported Apr 18 5:20 PM — May 3 5:20 PM, Coburg, Weather by CustomWeather, © 2016

Note: Actual official high and low records may vary slightly from our data, if they occured in-between our weather recording intervals... More about our weather records

Advertising

Coburg Weather History for the Previous 24 Hours

Scroll right to see more
 ConditionsComfort  
Time TempWeatherWind HumidityBarometerVisibility
5:20 PM
Tue, May 3
46 °FScattered clouds.16 mph82%30.07 "HgN/A
4:50 PM50 °FBroken clouds.17 mph76%30.07 "HgN/A
4:20 PM55 °FScattered clouds.5 mph67%30.04 "Hg5 mi
3:50 PM52 °FThunderstorms. Scattered clouds.6 mph77%30.04 "Hg6 mi
3:20 PM48 °FThunderstorms. Partly sunny.8 mph82%30.04 "Hg5 mi
2:50 PM54 °FThunderstorms. Partly sunny.9 mph63%30.04 "HgN/A
2:20 PM57 °FThundershowers. Broken clouds.8 mph51%30.01 "HgN/A
1:20 PM59 °FPassing clouds.9 mph42%30.01 "HgN/A
12:50 PM59 °FPassing clouds.8 mph42%30.04 "HgN/A
12:20 PM59 °FPassing clouds.9 mph39%30.04 "HgN/A
11:50 AM59 °FPassing clouds.7 mph48%30.04 "HgN/A
11:20 AM57 °FPassing clouds.5 mph51%30.04 "HgN/A
10:50 AM55 °FPassing clouds.6 mph51%30.04 "HgN/A
10:20 AM54 °FPassing clouds.6 mph54%30.04 "HgN/A
9:50 AM52 °FPassing clouds.3 mph58%30.04 "HgN/A
9:20 AM52 °FSunny.5 mph58%30.04 "Hg10 mi
8:50 AM50 °FSunny.No wind67%30.04 "Hg10 mi
8:20 AM45 °FSunny.3 mph81%30.04 "Hg10 mi
7:50 AM45 °FSunny.No wind76%30.04 "Hg10 mi
7:20 AM41 °FSunny.No wind81%30.04 "Hg10 mi
6:50 AM39 °FSunny.No wind87%30.04 "Hg10 mi
7:50 PM
Mon, May 2
54 °FSunny.12 mph54%30.12 "Hg10 mi
6:50 PM55 °FSunny.10 mph47%30.12 "Hg10 mi
6:20 PM57 °FPassing clouds.14 mph44%30.12 "HgN/A
Weather by CustomWeather, © 2016

See weather overviewHow to use our weather pages